Location: Unspecified
(49.8670°N, 0.0000°E)
Time: 07:37:42
(UTC+00:00)

S-56A Canister/Altair - Pass Details

Date: 24 June 2019
Orbit: 632 x 2500 km, 38.9° (Epoch: 19 July)

Event Time Altitude Azimuth Distance (km) Brightness Sun altitude
Rises 14:27:47 0° 218° (SW) 5,556 12.5 51.3°
Reaches altitude 10° 14:32:36 10° 207° (SSW) 4,247 12.0 50.6°
Maximum altitude 14:40:41 25° 159° (SSE) 2,652 10.6 49.4°
Drops below altitude 10° 14:46:46 10° 108° (ESE) 3,109 10.4 48.6°
Sets 14:49:40 0° 95° (E) 3,819 10.7 48.1°
